伽利略0223星导航星座 (GSAT0223 (GALILEO 27))

导读

GALILEO 27 (223)是欧洲空间局(ESA)伽利略全球卫星导航系统的成员,于2021年12月5日发射入轨。该卫星补充完善了伽利略系统的卫星星座布局,助力系统实现全球覆盖,为交通、农业、搜救等领域提供高精度定位与导航服务,打破了GPS垄断,推动全球卫星导航产业向多元化、高精度方向发展,提升了区域导航服务的可靠性。

基本信息
目录编号:
49809
目录名称:
GALILEO 27 (223)
国际标识:
2021-116A
轨道中心:
EARTH
卫星名称:
伽利略0223星
卫星全名:
伽利略0223星导航星座 (GSAT0223 (GALILEO 27))
卫星状态:
在轨 (已飞行1659 天)
发射日期:
2021-12-05 UTC
国别 :
(ESA)
星等 :
--
轨道信息
数据来源 国际轨道数据 AOE轨道数据
星历时间 2026-06-20T13:07:29+0800
1天前
查看轨道信息
2026-06-18T22:00:00+0800
3天前
查看轨道信息
半长轴 29600.089km 29600.112km
偏心率 0.000156 0.0001571
轨道倾角 57.160° 57.160°
近地点辐角 185.432° 186.146°
升交点赤经 341.592° 341.636°
平近点角 351.724° 70.522°
近地点 23217.334km 23217.324km
远地点 23226.57km 23226.626km
周期 844.694分钟 844.695分钟
每日圈数 1.70476 1.704758
详细信息
平衡模式:
三轴稳定
覆盖范围:
全球
运营商:
欧盟空间计划局
运营商所在国:
法国大都会
使用方式:
暂无
卫星简介
伽利略定位系统(Galileo)是一个全球导航卫星系统,于2016年投入使用由欧盟通过ESA创建,由欧盟空间计划局(EUSPA)运营。该系统有两个地面操控站,并且在高纬度地区提供比其他系统更好的定位服务。该卫星仍在工作。
2D轨道图
3D轨道图
轨道高度分析图
轨道倾角分析图
轨道综合分析图
查看轨道综合分析图